Grosseto, Italy

6:20 PM CEST on August 25, 2016 (GMT +0200)
Grosseto Mil

Weather History for LIRS - July, 2013

Change the Weather History Date:

Tuesday, July 16, 2013

  Actual Average Record
Temperature  
Mean Temperature 79 °F -  
Max Temperature 92 °F 86 °F 96 °F (2010)
Min Temperature 66 °F 63 °F 55 °F (2000)
Cooling Degree Days 14    
Growing Degree Days 29 (Base 50)    
Moisture  
Dew Point 59 °F    
Average Humidity 48    
Maximum Humidity 89    
Minimum Humidity 17    
Precipitation  
Precipitation 0.00 in 0.04 in - ()
Sea Level Pressure  
Sea Level Pressure 30.06 in    
Wind  
Wind Speed 7 mph ()    
Max Wind Speed 22 mph    
Max Gust Speed -    
Visibility 14.8 miles    
Events      
Averages and records for this station are not official NWS values.
T = Trace of Precipitation, MM = Missing Value Source: Averaged Metar Reports

Daily Weather History Graph

Daily Weather History Graph

Search for Another Location

Airport or City:

Trip Planner

Search our weather history database for the weather conditions in past years. The results will help you decide how hot, cold, wet, or windy it might be!

Date:

Astronomy

Jul. 16, 2013 Rise Set
Actual Time 5:51 AM CEST 8:51 PM CEST
Civil Twilight 5:18 AM CEST 9:25 PM CEST
Nautical Twilight 4:35 AM CEST 10:07 PM CEST
Astronomical Twilight 3:44 AM CEST 10:58 PM CEST
Moon 2:10 PM CEST (7/16) 12:16 AM CEST (7/16)
Length of Visible Light 16h 06m
Length of Day
14h 59m
First Quarter, 53% of the Moon is Illuminated
Jul 16
First Quarter
Jul 22
Full
Jul 29
Last Quarter
Aug 6
New
Aug 14
First Quarter

Hourly Weather History & Observations

Time (CEST) Temp. Heat Index Dew Point Humidity Pressure Visibility Wind Dir Wind Speed Gust Speed Precip Events Conditions
12:00 AM 77 °F - 65 °F 57% 30.04 in 12 mi North 6.9 mph - -  
12:55 AM 75.2 °F - 60.8 °F 61% 30.04 in - North - - N/A   Clear
1:00 AM 76 °F - 62 °F 52% 30.05 in 10 mi North 8.1 mph - -  
1:55 AM 75.2 °F - 60.8 °F 61% 30.04 in - North - - N/A   Clear
2:00 AM 75 °F - 61 °F 53% 30.05 in 9 mi NE 6.7 mph - -  
2:55 AM 75.2 °F - 60.8 °F 61% 30.04 in - North - - N/A   Clear
3:00 AM 74 °F - 62 °F 56% 30.06 in 9 mi NE 8.9 mph - -  
3:55 AM 73.4 °F - 62.6 °F 69% 30.04 in - North - - N/A   Clear
4:00 AM 73 °F - 62 °F 61% 30.06 in 9 mi North 8.9 mph - -  
4:55 AM 71.6 °F - 62.6 °F 73% 30.04 in - North - - N/A   Clear
5:00 AM 71 °F - 63 °F 68% 30.06 in 9 mi North 11.2 mph - -  
5:55 AM 68.0 °F - 62.6 °F 83% 30.04 in - North - - N/A   Clear
6:00 AM 69 °F - 62 °F 73% 30.06 in 16 mi North 4.6 mph - -  
6:55 AM 66.2 °F - 60.8 °F 83% 30.06 in - North - - N/A   Clear
7:00 AM 67 °F - 62 °F 77% 30.08 in 19 mi NNE 6.7 mph - -  
7:55 AM 68.0 °F - 60.8 °F 78% 30.06 in - North - - N/A   Clear
8:00 AM 68 °F - 62 °F 74% 30.08 in 19 mi NNE 4.6 mph - -  
8:55 AM 73.4 °F - 59.0 °F 61% 30.06 in - North - - N/A   Clear
9:00 AM 73 °F - 59 °F 53% 30.09 in 19 mi ENE 1.2 mph - -  
9:55 AM 78.8 °F - 59.0 °F 51% 30.06 in - North - - N/A   Clear
10:00 AM 80 °F - 60 °F 40% 30.09 in 19 mi NNW 3.5 mph - -  
10:55 AM 84.2 °F 83.8 °F 59.0 °F 42% 30.06 in - North - - N/A   Clear
11:00 AM 85 °F - 59 °F 32% 30.09 in 19 mi West 3.5 mph - -  
11:55 AM 87.8 °F 85.7 °F 53.6 °F 31% 30.06 in - North - - N/A   Clear
12:00 PM 89 °F - 53 °F 20% 30.09 in 25 mi NW 2.2 mph - -  
12:55 PM 87.8 °F 85.7 °F 53.6 °F 31% 30.06 in - North - - N/A   Partly Cloudy
1:00 PM 87 °F - 53 °F 21% 30.09 in 19 mi SW 8.1 mph - -   Scattered Clouds
1:55 PM 91.4 °F 89.1 °F 53.6 °F 28% 30.06 in - North - - N/A   Partly Cloudy
2:00 PM 92 °F - 54 °F 18% 30.09 in 25 mi SW 20.1 mph - -   Scattered Clouds
2:55 PM 93.2 °F 91.3 °F 55.4 °F 28% 30.06 in - North - - N/A   Partly Cloudy
3:00 PM 92 °F - 55 °F 19% 30.09 in 25 mi WSW 12.7 mph - -   Scattered Clouds
3:55 PM 93.2 °F 91.3 °F 55.4 °F 28% 30.06 in - North - - N/A   Partly Cloudy
4:00 PM 92 °F - 56 °F 20% 30.08 in 25 mi WSW 12.7 mph - -   Scattered Clouds
4:55 PM 93.2 °F 90.8 °F 53.6 °F 26% 30.06 in - North - - N/A   Partly Cloudy
5:00 PM 92 °F - 54 °F 18% 30.08 in 25 mi West 22.4 mph - -   Scattered Clouds
5:55 PM 89.6 °F 87.7 °F 55.4 °F 31% 30.06 in 6.2 mi WSW 8.1 mph - N/A   Partly Cloudy
6:55 PM 89.6 °F - 51.8 °F 27% 30.04 in - North - - N/A   Clear
7:00 PM 90 °F - 51 °F 17% 30.06 in 25 mi West 13.8 mph - -   Partly Cloudy
7:55 PM 89.6 °F 87.3 °F 53.6 °F 29% 30.04 in - North - - N/A   Clear
8:00 PM 90 °F - 53 °F 19% 30.06 in 19 mi WSW 6.9 mph - -   Partly Cloudy
8:55 PM 84.2 °F 86.6 °F 66.2 °F 55% 30.06 in - North - - N/A   Clear
9:00 PM 85 °F - 67 °F 44% 30.06 in 19 mi SW 8.9 mph - -   Partly Cloudy
9:55 PM 78.8 °F - 69.8 °F 74% 30.06 in - North - - N/A   Clear
10:55 PM 78.8 °F - 68.0 °F 69% 30.06 in - North - - N/A   Clear
11:00 PM 78 °F - 69 °F 66% 30.09 in 19 mi SE 4.5 mph - -   Scattered Clouds
11:55 PM 75.2 °F - 71.6 °F 89% 30.06 in - NNE 2.3 mph - N/A   Clear